Regional Weather Roundup
Issued by NWS Sioux Falls, SD

Home | Current Version | Previous Version | Graphics & Text | Print | Product List | Glossary Off
Versions: 1 2 3 4 5 6 7 8 9 10 11 12 13 14 15 16 17 18 19 20 21 22 23 24 25 26 27 28 29 30 31 32 33 34 35 36 37 38 39 40 41 42 43 44 45 46 47 48 49 50

000
ASUS43 KFSD 240202
RWRFSD

WEATHER ROUNDUP FOR SE SOUTH DAKOTA/SW MINNESOTA/NW IOWA
NATIONAL WEATHER SERVICE SIOUX FALLS SD
900 PM CDT WED JUL 23 2014

NOTE: "FAIR" INDICATES FEW OR NO CLOUDS BELOW 12,000 FEET WITH NO
SIGNIFICANT WEATHER AND OR OBSTRUCTIONS TO VISIBILITY.


SDZ038>040-050-052>070-240300-
SOUTHEAST SOUTH DAKOTA

CITY           SKY/WX    TMP DP  RH WIND       PRES   REMARKS
CHAMBERLAIN    CLEAR     75  57  53 SE12      30.12F
HURON          CLEAR     73  57  57 E9        30.13F
MADISON        FAIR      68  55  64 E6        30.19F
MITCHELL       CLEAR     72  62  71 SE6       30.15S
SIOUX FALLS    PTCLDY    72  56  57 E5        30.17S
WINNER         FAIR      80  54  40 SE14      30.11F
YANKTON        CLEAR     73  61  64 E5        30.15F
$$

MNZ071-072-080-081-089-090-097-098-240300-
SOUTHWEST MINNESOTA

CITY           SKY/WX    TMP DP  RH WIND       PRES   REMARKS
FAIRMONT       CLEAR     70  54  56 N5        30.17F
JACKSON        CLEAR     68  55  64 E3        30.19S
LUVERNE        CLEAR     72  57  60 E3        30.18F
MARSHALL       CLEAR     72  55  56 NE7         N/A
MONTEVIDEO     CLEAR     72  57  60 CALM      30.18F
PIPESTONE      CLEAR     72  55  56 E3        30.19F
REDWOOD FALLS  CLEAR     73  54  51 CALM      30.17F
TRACY          CLEAR     71  58  64 CALM      30.19S
WINDOM         CLEAR     70  59  68 CALM      30.18F
WORTHINGTON    CLEAR     70  57  64 NE5       30.20F
$$

IAZ001>003-012>014-020>022-031-032-NEZ013-014-SDZ071-240300-
NORTHWEST IOWA

CITY           SKY/WX    TMP DP  RH WIND       PRES   REMARKS
CHEROKEE       CLEAR     72  63  71 CALM      30.16S
DENISON        CLEAR     72  64  78 E6        30.14S
ESTHERVILLE    CLEAR     69  56  62 N6        30.17F
LE MARS        CLEAR     75  61  60 CALM      30.16F
ORANGE CITY    CLEAR     75  61  60 E3        30.17F
SHELDON        CLEAR     68  63  83 NE5       30.17S
SIOUX CITY     CLEAR     76  59  55 E5        30.15S
SPENCER        CLEAR     69  59  70 NE7       30.17F
STORM LAKE     CLEAR     70  64  83 E6        30.17F
$$

ABBREVIATIONS USED IN REMARKS
   TC - TEMPERATURE IN CELSIUS
  WCI - WIND CHILL INDEX
   HX - HEAT INDEX
  VSB - VISIBILITY




USA.gov is the U.S. government's official web portal to all federal, state and local government web resources and services.